カタログに戻る

HULIANWANG DIGUI-106

運用中通信LEO
NORAD 66916·PAYLOAD·🇨🇳 China

打ち上げ Dec 6, 2025 から Wenchang Space Launch Site

Loading…

次のパス (今後24時間)

TLE

最新Source: Space-Track

元期: Sep 14, 2026, 04:19 UTC

1 66916U 25285B   26257.18031045 -.00000089  00000-0  75546-4 0  9993
2 66916  50.0056 187.0047 0000212 227.6688 132.4166 13.29325658 37891

AllMySatでHULIANWANG DIGUI-106をリアルタイム追跡

Download on the App Store